Temp
50 51 55 60 67 69 71 73 74 75 76 77 78 78 78 78 78 78 78 78 78 79 80 80 80 79 80 79 79 78 78 77 77 77 76 77 78 79 79 78 77 78 79
51 52 55 61 65 67 69 71 72 73 74 75 77 78 78 78 78 78 78 78 79 79 79 79 80 79 79 79 78 78 78 77 76 75 74 75 76 78 79 78 77 77 79
52 52 51 61 63 65 67 69 70 71 72 73 75 77 78 78 78 78 78 78 78 78 78 79 79 79 78 78 77 77 77 77 76 75 74 73 74 78 79 77 77 78 79
53 52 52 60 62 63 65 66 68 69 70 71 72 72 74 77 78 78 78 77 77 77 77 78 78 77 77 77 77 77 77 76 75 74 73 75 76 78 78 78 78 78 78
54 53 54 59 61 62 63 64 66 67 68 68 69 70 71 73 77 78 77 77 76 76 76 77 77 77 76 76 76 76 76 76 74 73 72 74 74 78 78 79 79 78 78
52 52 53 58 60 61 62 62 63 65 66 66 66 67 68 70 73 75 76 75 75 75 76 76 76 76 76 76 76 76 76 75 73 71 71 75 76 79 78 78 78 78 78
49 49 50 56 58 59 61 61 62 62 63 64 64 65 66 67 68 71 73 75 75 75 75 76 76 76 76 75 76 76 75 73 72 70 71 72 76 80 80 78 78 78 78
45 47 48 51 54 56 58 60 60 61 61 61 61 62 63 64 65 66 68 73 75 75 75 75 75 75 75 75 75 75 73 70 72 70 71 75 76 79 80 79 77 78 77
45 44 44 45 48 50 54 56 58 59 59 59 59 59 59 59 61 63 64 66 71 74 74 74 74 74 74 74 74 73 71 70 68 69 73 72 75 80 80 78 77 77 77
42 42 41 42 43 43 48 52 54 55 56 56 56 55 54 54 56 58 59 62 66 69 73 73 73 74 73 73 73 72 70 69 68 69 70 71 77 80 80 78 77 77 77
40 40 40 40 40 41 45 46 49 51 52 53 52 52 50 49 50 53 54 58 61 65 69 72 73 72 71 70 70 70 68 68 69 69 69 72 77 79 79 78 77 77 77
35 37 38 39 38 39 44 42 43 46 45 47 47 47 47 48 46 49 50 54 56 59 63 69 72 71 69 67 66 67 66 68 68 69 71 71 74 77 77 77 76 76 77
35 35 36 37 37 37 38 39 41 43 43 45 45 46 45 46 45 44 46 47 49 54 56 60 68 67 66 66 66 66 67 67 66 67 70 70 72 73 74 76 76 76 76
33 34 35 36 35 35 37 37 38 40 41 42 43 45 43 42 41 42 43 45 45 49 50 52 56 64 66 66 68 70 69 69 68 66 67 68 70 72 72 73 75 75 76
31 32 33 35 33 34 35 35 36 37 39 40 41 43 41 40 40 40 41 42 44 46 46 48 52 55 64 64 66 67 70 70 70 69 67 66 68 70 71 73 74 76 76
32 31 33 33 32 33 33 33 35 36 37 37 40 40 40 39 39 39 38 39 42 42 45 47 49 52 59 65 64 64 65 67 68 67 67 66 68 69 70 72 73 75 77
30 30 31 32 31 30 31 31 33 34 36 34 38 38 37 39 38 37 37 37 39 41 43 45 48 51 51 63 63 61 61 61 61 64 63 61 62 64 67 71 72 74 75
29 29 30 31 28 29 28 28 31 32 32 33 35 35 36 37 36 34 36 36 37 38 42 43 44 44 47 48 60 58 58 57 59 59 57 59 58 61 64 67 70 73 73
28 27 28 28 26 27 27 27 28 30 29 32 33 33 33 35 34 33 34 35 36 36 38 40 40 42 43 46 53 56 55 55 56 57 55 56 57 58 60 65 66 68 69
25 25 26 27 26 27 26 26 26 26 27 30 31 30 31 32 32 32 34 33 35 33 34 35 37 39 41 44 49 53 52 51 52 52 53 54 53 56 58 63 64 64 65
24 23 23 24 23 24 22 22 23 21 24 26 27 28 29 30 30 31 30 32 33 32 31 33 35 36 38 42 45 50 50 50 50 51 51 51 50 53 55 59 64 63 65
22 21 22 23 23 23 22 22 22 20 23 24 26 26 28 28 29 31 28 29 31 30 30 30 32 32 37 40 38 41 49 49 47 48 48 50 51 50 54 58 62 63 64
19 18 21 22 21 21 16 21 21 23 23 23 22 23 25 26 28 27 27 28 28 28 27 29 30 31 29 34 38 39 45 48 47 44 45 46 47 48 50 53 58 64 65
17 18 18 19 20 20 17 11 10 13 14 18 18 21 22 25 25 26 26 26 26 26 26 28 31 29 30 29 34 42 40 40 47 45 44 45 48 48 49 51 56 60 64
20 13 11 13 16 16 11 9 4 6 10 14 16 17 19 22 23 24 25 25 24 25 26 27 26 27 29 29 31 33 35 40 45 47 45 43 46 45 48 49 52 55 63
13 12 14 14 13 13 10 7 3 -1 5 10 11 13 16 18 20 22 24 23 23 24 24 25 26 27 28 29 31 32 33 35 38 42 46 43 44 44 46 48 49 54 61
MSLP
1029.22 1029.07 1028.10 1026.49 1024.83 1023.65 1022.60 1021.68 1021.07 1020.59 1020.09 1019.70 1019.52 1019.44 1019.38 1019.24 1019.26 1019.19 1019.15 1019.07 1018.93 1018.68 1018.64 1018.54 1018.51 1018.49 1018.34 1018.36 1018.37 1018.26 1018.29 1018.24 1018.21 1018.26 1018.12 1018.09 1018.02 1017.93 1018.13 1018.22 1018.22 1018.15 1018.25
1030.46 1029.74 1028.62 1026.67 1025.35 1024.21 1023.23 1022.40 1021.70 1021.18 1020.71 1020.29 1019.84 1019.66 1019.57 1019.58 1019.50 1019.38 1019.43 1019.35 1019.18 1019.07 1018.82 1018.77 1018.71 1018.68 1018.47 1018.57 1018.39 1018.40 1018.46 1018.52 1018.54 1018.60 1018.53 1018.43 1018.32 1018.35 1018.39 1018.33 1018.32 1018.36 1018.47
1030.44 1029.92 1028.91 1027.05 1025.85 1024.72 1023.84 1023.08 1022.35 1021.82 1021.37 1020.92 1020.40 1019.98 1019.77 1019.64 1019.60 1019.58 1019.56 1019.51 1019.49 1019.31 1019.25 1019.01 1018.93 1018.86 1018.78 1018.77 1018.51 1018.62 1018.55 1018.56 1018.63 1018.78 1018.76 1018.85 1018.54 1018.48 1018.61 1018.56 1018.52 1018.58 1018.66
1030.44 1030.04 1029.07 1027.59 1026.49 1025.50 1024.52 1023.70 1023.04 1022.47 1022.00 1021.57 1021.17 1020.80 1020.36 1019.91 1019.74 1019.59 1019.61 1019.64 1019.63 1019.50 1019.43 1019.22 1019.03 1018.88 1018.83 1018.92 1018.80 1018.71 1018.72 1018.58 1018.61 1018.61 1018.77 1018.85 1018.60 1018.62 1018.65 1018.79 1018.69 1018.65 1018.73
1030.51 1030.07 1029.27 1028.09 1027.09 1026.24 1025.26 1024.37 1023.70 1023.12 1022.67 1022.27 1021.82 1021.50 1021.06 1020.67 1020.09 1019.87 1019.77 1019.78 1019.80 1019.73 1019.60 1019.49 1019.31 1019.11 1019.05 1018.92 1018.86 1018.94 1018.86 1018.91 1018.75 1018.51 1018.53 1018.66 1018.53 1018.68 1018.59 1018.62 1018.77 1018.73 1018.83
1030.92 1030.39 1029.69 1028.49 1027.55 1026.89 1026.08 1025.27 1024.48 1023.87 1023.39 1022.92 1022.61 1022.22 1021.75 1021.23 1020.71 1020.22 1019.98 1019.87 1019.87 1019.77 1019.64 1019.50 1019.43 1019.22 1019.03 1019.00 1018.94 1018.89 1018.85 1018.95 1018.81 1018.70 1018.65 1018.51 1018.50 1018.42 1018.84 1018.84 1018.88 1018.85 1018.96
1031.30 1030.83 1030.11 1029.02 1028.13 1027.41 1026.70 1026.04 1025.40 1024.87 1024.26 1023.75 1023.32 1022.84 1022.36 1021.91 1021.43 1020.94 1020.44 1020.06 1019.95 1019.83 1019.68 1019.56 1019.41 1019.29 1019.15 1019.01 1018.98 1018.87 1018.91 1018.82 1018.77 1018.71 1018.88 1018.66 1018.29 1018.21 1018.52 1018.68 1018.74 1018.93 1019.08
1031.95 1031.38 1030.58 1029.77 1028.83 1028.04 1027.28 1026.59 1026.14 1025.61 1025.14 1024.70 1024.20 1023.70 1023.10 1022.60 1022.08 1021.60 1021.15 1020.46 1020.06 1019.91 1019.81 1019.67 1019.40 1019.17 1019.04 1018.96 1018.86 1018.84 1018.87 1018.85 1018.80 1018.72 1018.64 1018.56 1018.25 1018.13 1018.26 1018.42 1018.64 1018.84 1019.02
1032.26 1031.78 1031.17 1030.46 1029.67 1028.88 1028.00 1027.25 1026.68 1026.19 1025.76 1025.45 1025.07 1024.54 1023.97 1023.46 1022.92 1022.37 1021.82 1021.32 1020.60 1020.09 1019.90 1019.77 1019.59 1019.36 1019.13 1018.93 1018.91 1018.88 1018.85 1018.80 1018.86 1018.78 1018.53 1018.44 1018.15 1018.05 1018.12 1018.30 1018.60 1018.74 1018.88
1032.40 1032.11 1031.62 1030.99 1030.33 1029.69 1028.98 1028.26 1027.61 1026.96 1026.54 1026.13 1025.70 1025.31 1024.85 1024.26 1023.66 1023.21 1022.75 1022.20 1021.36 1020.68 1020.10 1019.85 1019.66 1019.49 1019.23 1019.05 1018.85 1018.83 1018.87 1018.84 1018.76 1018.63 1018.53 1018.45 1018.08 1017.87 1017.99 1018.17 1018.43 1018.68 1018.79
1032.59 1032.38 1031.96 1031.49 1031.01 1030.42 1029.53 1029.04 1028.24 1027.63 1027.24 1026.71 1026.23 1025.97 1025.67 1025.31 1024.81 1024.25 1023.78 1022.88 1022.20 1021.31 1020.48 1019.89 1019.65 1019.42 1019.23 1019.02 1018.79 1018.72 1018.77 1018.69 1018.61 1018.57 1018.46 1018.23 1018.03 1017.91 1017.93 1018.06 1018.23 1018.44 1018.66
1033.35 1032.96 1032.59 1032.09 1031.60 1030.97 1030.15 1029.76 1029.10 1028.57 1028.28 1027.72 1027.32 1026.85 1026.51 1026.18 1025.99 1025.40 1024.55 1023.74 1022.89 1022.11 1021.26 1020.36 1019.57 1019.36 1019.22 1019.01 1018.80 1018.61 1018.72 1018.59 1018.48 1018.39 1018.23 1018.07 1018.05 1017.89 1017.96 1017.99 1018.07 1018.19 1018.40
1034.45 1033.95 1033.37 1032.91 1032.44 1031.74 1031.03 1030.54 1029.94 1029.38 1029.08 1028.57 1028.23 1027.72 1027.46 1027.00 1026.64 1026.12 1025.41 1024.60 1023.97 1023.19 1022.54 1021.69 1020.28 1019.75 1019.43 1019.11 1018.58 1018.53 1018.55 1018.37 1018.30 1018.20 1018.07 1018.02 1018.18 1018.23 1018.09 1018.00 1017.94 1018.05 1018.12
1034.72 1034.41 1034.02 1033.65 1033.12 1032.56 1032.00 1031.37 1030.95 1030.30 1029.77 1029.39 1028.99 1028.49 1028.32 1027.89 1027.63 1027.09 1026.67 1025.99 1025.29 1024.63 1023.82 1023.01 1022.13 1020.53 1019.58 1019.10 1018.64 1018.24 1018.14 1018.17 1018.15 1018.07 1018.03 1017.93 1017.91 1018.22 1018.25 1018.11 1017.84 1017.87 1017.87
1035.04 1034.84 1034.44 1034.02 1033.71 1033.16 1032.56 1032.14 1031.53 1031.07 1030.64 1030.31 1029.69 1029.38 1029.21 1028.77 1028.43 1028.01 1027.58 1026.96 1026.39 1025.69 1024.96 1023.87 1022.87 1021.85 1019.87 1019.13 1018.72 1018.43 1017.94 1017.78 1017.98 1017.94 1017.94 1017.91 1017.82 1017.88 1018.16 1018.00 1017.78 1017.58 1017.57
1035.53 1035.30 1034.92 1034.59 1034.50 1033.94 1033.28 1032.85 1032.26 1031.79 1031.35 1030.95 1030.37 1030.19 1029.93 1029.60 1029.21 1028.76 1028.30 1027.81 1027.02 1026.51 1025.62 1024.63 1023.42 1022.42 1020.73 1019.14 1018.54 1018.40 1018.17 1017.91 1017.84 1017.99 1018.07 1017.98 1017.74 1017.64 1017.80 1017.84 1017.47 1017.23 1017.20
1036.05 1035.86 1035.59 1035.12 1035.09 1034.60 1034.18 1033.71 1033.01 1032.50 1031.99 1031.53 1031.00 1030.71 1030.54 1030.10 1029.82 1029.43 1028.84 1028.45 1027.85 1027.16 1025.93 1024.90 1023.73 1022.51 1021.65 1019.23 1018.70 1018.33 1018.29 1018.12 1018.13 1017.87 1018.04 1018.08 1017.91 1017.73 1017.42 1017.38 1017.01 1016.66 1016.79
1036.31 1036.15 1036.03 1035.75 1035.50 1035.02 1034.67 1034.32 1033.76 1033.25 1032.77 1032.13 1031.66 1031.50 1031.15 1030.65 1030.41 1029.95 1029.29 1028.83 1028.35 1027.56 1026.54 1025.66 1024.66 1023.41 1022.41 1020.98 1019.19 1018.46 1018.28 1018.24 1018.12 1017.85 1018.10 1018.07 1017.94 1017.73 1017.40 1017.06 1016.65 1016.51 1016.54
1036.49 1036.40 1036.15 1035.96 1035.88 1035.44 1035.14 1034.79 1034.30 1033.81 1033.34 1032.70 1032.30 1032.07 1031.63 1031.16 1030.89 1030.38 1029.73 1029.31 1028.79 1028.14 1027.46 1026.57 1025.56 1024.80 1023.40 1021.59 1020.43 1018.49 1018.22 1017.91 1018.00 1017.96 1017.91 1018.05 1017.79 1017.63 1017.39 1016.88 1016.50 1016.36 1016.25
1036.89 1037.01 1036.86 1036.63 1036.50 1035.99 1035.65 1035.07 1034.58 1034.33 1033.87 1033.26 1032.88 1032.61 1032.18 1031.76 1031.42 1030.78 1030.09 1029.66 1029.15 1028.71 1028.09 1027.44 1026.35 1025.22 1024.19 1022.49 1020.91 1018.83 1018.18 1017.97 1017.83 1017.81 1017.74 1017.65 1017.75 1017.55 1017.15 1016.81 1016.38 1016.18 1015.83
1037.34 1037.50 1037.51 1037.27 1036.98 1036.42 1035.82 1035.06 1034.61 1034.63 1034.19 1033.78 1033.35 1032.98 1032.60 1032.27 1031.82 1031.16 1030.77 1030.01 1029.51 1029.21 1028.84 1028.12 1027.04 1025.46 1023.68 1023.36 1021.44 1019.17 1017.91 1017.72 1017.65 1017.41 1017.32 1017.43 1017.44 1017.30 1016.96 1016.69 1016.08 1015.89 1015.84
1037.48 1037.54 1037.42 1037.17 1036.88 1036.64 1036.46 1036.22 1036.01 1035.56 1034.50 1034.27 1033.94 1033.58 1033.17 1032.76 1032.22 1031.60 1031.22 1030.56 1030.03 1029.56 1029.00 1028.46 1027.68 1026.49 1025.01 1024.37 1023.59 1021.43 1018.52 1017.83 1017.42 1016.89 1016.97 1016.93 1016.88 1016.87 1016.83 1016.34 1015.85 1015.58 1015.76
1037.21 1037.33 1037.32 1037.18 1036.98 1036.90 1037.06 1036.65 1036.41 1035.48 1035.08 1034.45 1034.46 1033.99 1033.58 1033.07 1032.43 1032.12 1031.59 1031.08 1030.54 1030.30 1029.64 1028.85 1028.24 1027.52 1026.38 1025.01 1024.64 1023.98 1020.52 1018.25 1016.94 1016.60 1016.63 1016.56 1016.58 1016.55 1016.47 1016.25 1015.78 1015.20 1015.28
1037.16 1037.26 1037.33 1037.33 1037.25 1037.04 1037.17 1037.58 1037.34 1037.25 1036.79 1035.99 1035.41 1034.67 1033.89 1033.19 1032.78 1032.24 1031.67 1031.33 1031.04 1030.63 1030.01 1029.26 1028.40 1027.98 1027.27 1025.39 1024.12 1022.84 1023.10 1021.79 1018.31 1016.52 1016.47 1016.13 1016.18 1016.28 1016.12 1015.83 1015.59 1014.88 1014.63
1036.73 1037.05 1037.16 1037.38 1037.37 1037.43 1037.84 1038.02 1038.16 1038.00 1037.58 1036.67 1035.89 1034.97 1034.12 1033.45 1032.99 1032.32 1031.78 1031.48 1031.23 1030.73 1030.06 1029.39 1028.84 1028.15 1027.36 1026.54 1025.00 1022.94 1021.29 1020.55 1018.37 1016.78 1016.15 1016.03 1016.04 1015.66 1015.59 1015.29 1015.28 1014.81 1014.03
1036.66 1036.78 1037.03 1037.36 1037.70 1037.90 1038.08 1038.35 1038.68 1038.29 1037.81 1037.10 1036.23 1035.44 1034.58 1033.82 1033.08 1032.45 1031.95 1031.70 1031.21 1030.60 1030.12 1029.35 1028.50 1027.83 1027.05 1026.19 1025.29 1024.12 1022.56 1021.94 1019.19 1018.42 1016.38 1015.59 1015.37 1015.13 1014.87 1014.82 1014.78 1014.37 1013.73
Wind_Speed
15 20 31 32 31 30 29 27 27 26 24 20 18 17 16 14 14 14 14 12 12 12 12 10 9 8 10 8 8 8 9 10 9 8 8 8 8 10 9 7 9 8 12
12 17 27 30 29 29 29 28 27 27 26 25 21 18 17 15 13 13 13 13 13 13 13 11 10 8 10 8 7 7 6 7 7 6 5 6 6 6 6 2 9 8 10
12 14 18 28 29 29 30 28 28 27 26 26 24 22 18 16 15 14 13 13 13 13 13 11 11 9 8 8 7 5 5 5 5 4 3 2 3 5 7 8 9 9 9
11 12 15 27 28 28 29 29 28 28 28 26 26 26 25 19 16 14 14 13 13 13 12 11 10 10 8 7 7 6 5 5 5 6 1 3 3 5 8 8 7 8 8
12 13 15 26 27 27 29 29 29 29 28 28 28 27 24 24 19 16 14 12 11 10 11 10 9 7 7 6 6 6 5 4 5 6 5 3 3 5 7 7 6 8 8
14 15 18 26 27 26 28 28 29 29 29 29 28 27 26 25 24 20 15 11 10 8 9 10 9 7 6 6 5 5 5 5 6 4 5 6 5 9 8 8 7 7 9
14 15 16 26 28 27 27 28 28 29 29 29 29 29 27 26 26 25 23 12 10 8 10 10 8 6 6 5 5 5 4 5 5 5 4 6 3 9 9 9 9 8 8
12 15 15 22 27 27 28 28 28 29 28 29 29 29 29 28 28 27 26 23 11 10 9 10 9 8 7 6 5 6 5 4 4 6 5 4 6 8 8 8 8 9 10
12 13 14 15 20 25 26 29 28 29 28 28 28 30 29 27 28 28 28 28 25 14 9 9 9 8 7 7 6 6 6 6 3 4 5 4 6 6 6 9 9 10 10
12 13 14 14 15 15 14 26 27 27 28 27 28 30 28 26 28 28 27 27 27 25 14 10 9 9 7 8 7 6 6 5 4 5 4 4 6 3 5 8 10 11 10
12 14 15 15 15 15 14 16 21 25 27 26 25 28 20 13 17 20 24 28 28 27 26 14 12 9 8 8 8 7 5 3 4 3 3 7 4 1 4 7 10 11 10
15 15 15 15 15 15 12 13 13 13 12 13 16 16 13 14 15 17 19 26 27 28 27 27 16 10 9 4 3 4 3 4 3 4 1 7 9 6 5 6 7 11 11
10 11 14 14 14 14 12 10 7 7 8 9 15 14 13 11 11 10 9 10 12 20 11 17 13 6 6 5 4 3 4 4 2 2 3 6 6 7 7 7 6 8 10
10 12 12 12 13 13 8 8 9 9 9 9 10 16 11 9 11 11 9 12 11 10 14 13 10 14 9 6 6 4 4 2 2 1 2 5 3 4 6 9 8 8 10
10 11 12 12 14 12 11 9 8 9 8 10 9 13 12 11 10 10 11 10 10 11 11 12 12 13 12 7 5 6 5 2 3 2 1 3 3 3 9 10 12 12 11
9 10 11 11 13 12 11 12 9 8 9 8 8 10 14 10 10 11 10 10 10 11 11 11 11 12 15 8 5 5 6 3 2 1 2 3 5 3 9 13 13 14 14
5 7 10 11 11 11 11 10 8 8 9 8 9 10 14 12 13 12 9 10 11 12 14 12 12 11 12 11 8 2 2 2 2 2 1 2 4 8 8 12 14 14 12
5 8 9 10 11 11 10 8 7 7 8 7 8 9 13 12 14 11 10 9 11 11 11 11 11 12 11 11 10 4 3 3 3 2 3 3 3 4 7 11 12 10 12
8 10 11 11 13 12 11 8 7 9 7 7 7 9 12 12 14 11 9 9 12 10 10 12 11 10 13 11 15 4 4 3 3 2 4 5 4 5 4 8 9 7 5
7 7 8 8 9 8 7 6 3 6 6 7 7 9 12 10 13 11 10 11 10 10 10 11 14 11 10 11 14 6 3 3 3 4 4 3 4 7 5 6 5 3 3
6 5 4 6 7 7 7 7 4 7 5 6 8 12 12 12 12 11 9 10 10 10 11 12 12 15 11 10 10 4 4 5 5 5 3 4 5 6 5 5 5 3 2
2 3 4 7 7 7 7 6 5 6 5 6 7 9 11 13 12 12 11 11 12 11 12 11 13 11 8 8 8 8 5 3 4 6 4 5 6 4 6 6 6 7 6
3 4 5 5 7 6 6 6 6 4 6 5 9 8 10 12 11 12 11 10 11 10 10 13 12 13 11 10 6 5 7 4 2 2 5 4 5 3 4 4 6 10 11
3 3 4 5 5 6 6 4 6 5 7 6 9 8 10 10 12 11 11 11 11 9 11 11 11 11 10 13 9 3 11 8 7 2 3 3 3 5 6 4 6 6 12
3 3 2 4 5 5 5 4 2 3 3 6 7 11 10 10 10 11 11 12 11 8 10 13 14 13 9 11 11 11 11 11 16 4 3 3 3 4 5 4 4 6 9
1 3 4 5 4 5 4 4 3 4 7 7 8 7 8 8 8 10 12 11 11 11 12 12 14 14 14 12 10 11 9 9 9 10 5 3 3 4 4 4 5 6 7
Wind_Direction
341 341 339 339 358 0 9 16 20 20 22 22 20 21 25 36 37 32 28 25 22 23 24 21 30 31 24 28 40 43 48 51 55 51 61 72 78 92 96 69 107 96 98
328 337 340 343 359 4 11 17 20 20 21 19 20 16 19 20 30 36 31 24 20 18 18 27 27 29 22 24 35 40 42 54 52 56 78 86 85 72 49 78 96 112 110
347 345 335 356 3 7 11 17 20 21 20 20 17 17 14 14 16 20 24 25 20 16 17 20 20 25 32 15 37 33 24 39 26 34 29 6 120 101 82 95 103 115 127
355 352 340 3 8 9 12 17 19 21 20 19 19 16 11 12 9 12 18 19 18 16 13 15 13 10 27 24 18 40 37 14 343 322 331 295 234 142 120 127 127 137 142
6 0 351 4 12 13 14 17 18 20 20 19 19 16 12 7 5 9 9 8 15 17 13 8 5 9 11 21 17 7 28 20 340 329 324 301 243 173 147 138 146 146 145
6 2 358 8 12 16 18 20 19 19 17 19 18 15 13 12 9 2 1 5 360 15 19 10 0 1 4 2 4 1 3 349 333 327 328 304 260 162 176 161 163 161 161
6 4 3 8 12 15 18 22 21 21 19 18 17 14 14 12 9 8 360 357 1 7 15 5 354 347 345 349 348 351 346 335 321 311 297 305 216 159 176 180 175 178 183
9 5 4 6 10 13 16 18 21 22 21 18 16 15 13 11 8 7 3 360 350 3 11 2 356 347 340 333 335 328 331 330 313 306 317 311 228 161 178 184 182 186 183
14 12 7 6 7 7 12 15 18 19 20 19 17 13 11 10 8 4 2 1 352 346 0 356 349 344 335 327 320 313 312 312 303 287 304 319 244 168 170 195 194 195 188
19 16 10 8 7 4 6 12 15 18 17 18 18 13 11 8 6 1 360 354 355 352 331 332 328 327 329 315 306 296 293 305 285 277 277 278 273 155 188 198 202 208 202
18 15 10 9 8 4 7 5 11 13 13 13 14 13 11 6 1 358 351 354 353 352 344 320 308 304 307 299 286 277 279 265 261 273 283 284 301 245 212 210 207 211 206
14 9 10 8 6 4 8 5 9 8 9 10 9 11 10 8 1 356 354 354 353 353 349 340 333 312 307 294 292 274 261 270 278 280 145 54 355 333 298 245 223 212 202
12 11 9 10 5 6 6 6 7 9 7 8 7 13 12 5 359 359 353 353 352 351 346 342 330 332 330 305 252 242 261 263 252 266 104 89 34 0 335 284 245 226 209
16 13 8 15 9 7 5 7 4 7 8 8 2 8 16 7 2 2 356 349 351 347 340 343 330 320 310 312 316 257 261 293 266 247 193 120 79 337 307 287 271 239 221
23 11 9 16 9 2 8 4 6 8 7 2 2 10 13 5 2 358 352 349 345 345 339 333 327 324 306 299 299 309 282 270 323 297 185 160 124 19 310 295 270 250 228
23 12 4 20 8 359 7 2 2 2 5 0 6 8 10 3 3 356 352 349 347 341 333 326 328 318 308 287 281 292 284 287 136 26 349 331 315 253 284 292 273 252 229
23 8 14 17 10 1 5 359 359 -0 1 356 6 12 5 4 3 352 349 350 347 335 333 332 328 334 323 307 273 220 305 334 312 65 14 337 323 313 283 282 274 240 224
40 25 21 18 9 6 6 358 358 358 355 353 1 15 5 4 359 350 347 350 343 340 338 339 338 332 322 323 295 227 209 255 279 314 312 305 306 299 308 287 258 222 229
40 24 18 14 6 -0 356 347 351 357 352 357 358 7 1 1 355 349 345 345 344 343 343 341 335 331 321 315 305 252 245 232 258 282 262 275 290 277 284 288 221 203 176
42 25 17 13 3 360 349 331 324 3 342 360 10 2 358 358 351 344 350 343 346 344 343 340 331 327 305 310 313 265 253 255 233 234 251 261 277 277 266 290 216 216 94
49 29 24 11 6 13 3 357 355 1 346 357 4 354 354 353 347 350 346 342 346 346 337 334 328 326 331 329 295 282 248 242 243 235 217 237 250 265 272 267 225 169 158
78 28 29 21 15 25 18 9 354 330 339 335 355 348 348 346 343 350 343 340 346 339 336 337 339 328 313 358 311 304 255 231 238 227 213 223 236 243 268 250 254 180 171
54 44 35 20 18 26 23 10 356 327 337 353 350 341 343 337 342 342 341 339 340 340 331 331 331 336 316 318 316 301 308 271 195 149 232 221 237 247 252 265 263 203 183
173 102 60 27 19 24 16 21 15 1 342 336 322 322 329 333 338 335 336 338 337 328 327 324 325 317 310 309 322 241 296 291 290 243 255 230 213 238 245 242 250 253 189
133 135 92 42 22 19 18 20 15 330 277 302 316 326 330 334 330 333 336 337 329 328 319 320 316 311 303 296 295 310 314 301 283 277 217 239 235 219 229 233 253 249 220
184 81 53 39 360 357 5 348 332 311 313 324 329 328 332 326 328 331 333 328 324 320 320 313 310 305 301 294 285 283 284 287 302 309 272 202 220 217 211 228 234 243 240